Other Surface Observations
Issued by NWS Charleston, SC

Home | Current Version | Previous Version | Text Only | Print | Product List | Glossary On
Versions: 1 2 3 4 5 6 7 8 9 10 11 12 13 14 15 16 17 18 19 20 21 22 23 24 25 26 27 28 29 30 31 32 33 34 35 36 37 38 39 40 41 42 43 44 45 46 47 48 49 50
000
SXUS52 KCHS 190226
OSOCHS

MARINE OBSERVATIONS
NATIONAL WEATHER SERVICE CHARLESTON SC
1000 PM EDT SAT APR 18 2015

...DOWNTOWN CHARLESTON AND HARBOR...

CITY           SKY/WX    TMP DP  RH WIND       PRES   REMARKS
WATERFRONT PRK   N/A     68 N/A N/A E5          N/A
FORT JOHNSON   NOT AVBL

...LAKE MOULTRIE...

CITY           SKY/WX    TMP DP  RH WIND       PRES   REMARKS
PINOPOLIS      NOT AVBL

...LAKE AND SUPPLEMENTAL COASTAL OBSERVATIONS...

STATION/POSITION TIME  TEMP    WIND        PRES    WAVE   SWELL
                       AIR SEA DIR/SP/G            HT/PER HT/PER/DIR
                 (UTC) (F)     (DEG/KT/KT) (MB)    (FT/S) (FT/S/D)
FORT PULASKI     0200   69 71  140/  2/  3 1015.9R
SAPELO ISLAND    0200   71     180/  8     1015.0S
UPR LAKE MARION  NOT AVBL
WINYAH BAY       0100   67      50/  5     1013.0S
LAKE MURRAY      0200   68        CALM     1014.2R
ACE BASIN NERRS  NOT AVBL


...C-MAN AND BUOY OBSERVATIONS...

STATION/POSITION TIME  TEMP    WIND        PRES    WAVE   SWELL
                       AIR SEA DIR/SP/G            HT/PER HT/PER/DIR
                 (UTC) (F)     (DEG/KT/KT) (MB)    (FT/S) (FT/S/D)
BUOY 41004       0150   73 75  130/  2/  4 1014.7R   3/ 8   3/ 8
BUOY 41008       0150   71 67  200/ 10/ 12 1015.1R   2/ 9   2/100/ 9
FOLLY BEACH CMAN 0200   67      70/  4/  4 1015.5R
CAPERS NS BUOY   NOT AVBL
FRIPP NS BUOY    0100   69     110/  6/  6 1014.1R
5E ST. MARYS GA  0121      71                N/A     2/ 9   2/ 70/11


STATION/POSITION TIME  TEMP    WIND        PRES    WAVE   SWELL
                       AIR SEA DIR/SP/G            HT/PER HT/PER/DIR
                 (UTC) (F)     (DEG/KT/KT) (MB)    (FT/S) (FT/S/D)
FRYING PAN BUOY  0150   74 74  130/  8/ 10 1015.2R   4/ 9   3/120/ 9
BUOY 41025       0150   69 76   20/ 10/ 12 1015.6R   4/ 9   5/ 80/ 9
CAPE LOOKOUT NC  0200   68     360/  2/  2 1015.4R
BUOY 41002       0150   72 75  160/  4/  6 1015.2R   5/ 9   5/ 70/ 9
BUOY 41010       0120   77 79  110/  4/  6 1015.1R
ST AUGUSTINE FL  0200   72 72   60/  4/  4 1016.1R

$$



USA.gov is the U.S. government's official web portal to all federal, state and local government web resources and services.